SM4TUV Weather Reports


Display with metric or nautical units.
time (UTC)temp
F
wind
direction
speed
MPH
gust
MPH
rain 1hr
in
rain 24hr
in
rain mn
in
humidity
%
barometer
mb
20260902043332 51 233 3.0 4.0 0.00 0.06 0.00 92 973.5
20260902042433 51 243 3.0 4.0 0.00 0.06 0.00 92 973.4
20260902041532 52 239 5.0 8.0 0.00 0.06 0.00 92 973.4
20260902040632 51 227 5.0 6.0 0.00 0.06 0.00 92 973.3
20260902035732 51 239 2.0 6.0 0.00 0.06 0.00 92 973.6
20260902033933 51 190 2.0 2.0 0.00 0.06 0.00 92 973.5
20260902032132 51 176 3.0 4.0 0.00 0.06 0.00 91 973.4
20260902030332 51 146 3.0 4.0 0.00 0.06 0.00 91 973.5
20260902024532 50 96 2.0 3.0 0.00 0.06 0.00 90 973.4
20260902023632 50 87 2.0 3.0 0.00 0.06 0.00 90 973.6
20260902022733 51 136 2.0 3.0 0.00 0.06 0.00 91 973.5
20260902021832 50 132 2.0 3.0 0.00 0.06 0.00 90 973.6
20260902020932 49 98 2.0 3.0 0.00 0.06 0.00 89 973.5
20260902020033 49 96 1.0 2.0 0.00 0.06 0.00 89 973.6
20260902014232 51 148 3.0 4.0 0.00 0.06 0.00 89 973.7
20260902013332 51 178 3.0 4.0 0.00 0.06 0.00 90 973.8
20260902012433 51 172 3.0 3.0 0.00 0.06 0.00 90 973.8
20260902011532 50 152 2.0 4.0 0.00 0.06 0.00 89 973.8
20260902010632 51 181 4.0 4.0 0.00 0.06 0.00 89 973.9
20260902005732 51 160 3.0 4.0 0.00 0.06 0.00 89 973.9
20260902004832 50 98 1.0 2.0 0.00 0.06 0.00 85 974.0
20260902003032 52 96 0.0 1.0 0.00 0.06 0.00 85 974.0
20260902000332 53 170 2.0 3.0 0.00 0.06 0.00 85 974.1
20260901235432 53 171 3.0 4.0 0.00 0.06 0.00 85 974.1
20260901234532 53 182 3.0 4.0 0.00 0.06 0.00 85 974.2
20260901232733 53 177 2.0 3.0 0.00 0.06 0.00 84 974.2
20260901231832 53 177 3.0 4.0 0.00 0.06 0.00 84 974.3
20260901230932 53 181 3.0 4.0 0.00 0.06 0.00 84 974.3
20260901225132 53 159 2.0 3.0 0.00 0.06 0.00 82 974.3
20260901224232 53 173 2.0 3.0 0.00 0.06 0.00 83 974.4
20260901223332 53 135 1.0 2.0 0.00 0.06 0.00 80 974.4
20260901222432 54 135 2.0 2.0 0.00 0.06 0.00 80 974.5
20260901221532 54 148 2.0 2.0 0.00 0.06 0.00 80 974.5
20260901220632 54 181 2.0 3.0 0.00 0.06 0.00 79 974.5
20260901215732 55 171 3.0 3.0 0.00 0.06 0.06 79 974.7
20260901214832 55 177 4.0 4.0 0.00 0.06 0.06 79 974.5
20260901213933 55 176 4.0 4.0 0.00 0.06 0.06 78 974.5
20260901213032 55 179 4.0 4.0 0.00 0.06 0.06 77 974.5
20260901212132 56 176 4.0 4.0 0.00 0.06 0.06 77 974.5
20260901205433 57 168 3.0 3.0 0.00 0.06 0.06 74 974.7
20260901204532 57 181 3.0 3.0 0.00 0.06 0.06 73 974.8
20260901203632 57 175 2.0 3.0 0.00 0.06 0.06 73 974.7
20260901202732 57 171 2.0 3.0 0.00 0.06 0.06 72 974.8
20260901201832 58 172 2.0 3.0 0.00 0.06 0.06 71 974.8
20260901195132 59 181 3.0 3.0 0.00 0.06 0.06 69 975.0
20260901193332 59 177 3.0 4.0 0.00 0.06 0.06 69 974.8
20260901191532 60 185 3.0 4.0 0.00 0.06 0.06 68 974.8
20260901190632 59 206 3.0 3.0 0.00 0.06 0.06 70 974.8
20260901185733 59 203 2.0 3.0 0.00 0.06 0.06 69 974.8
20260901184832 60 197 2.0 3.0 0.00 0.06 0.06 68 974.9
20260901183932 60 177 3.0 4.0 0.00 0.06 0.06 67 974.9
20260901183032 61 175 4.0 5.0 0.00 0.06 0.06 66 974.8
20260901182132 61 170 4.0 5.0 0.00 0.06 0.06 66 974.9
20260901181232 61 184 4.0 4.0 0.00 0.06 0.06 66 974.9
20260901175433 62 176 4.0 4.0 0.00 0.06 0.06 65 974.7
20260901174532 63 178 3.0 4.0 0.00 0.06 0.06 64 974.8
20260901172732 64 179 3.0 4.0 0.00 0.06 0.06 62 974.8
20260901171832 65 185 3.0 4.0 0.00 0.06 0.06 62 974.6
20260901170932 65 140 3.0 4.0 0.00 0.06 0.06 61 974.8
20260901170032 67 174 2.0 3.0 0.00 0.06 0.06 59 974.8
20260901165132 68 182 2.0 3.0 0.00 0.06 0.06 55 974.9
20260901164232 70 222 1.0 2.0 0.00 0.06 0.06 51 975.1
20260901163332 70 267 1.0 2.0 0.00 0.06 0.06 51 975.1
20260901162432 71 256 1.0 2.0 0.00 0.06 0.06 51 975.1
20260901155732 71 267 2.0 5.0 0.00 0.06 0.06 48 975.0
20260901154832 73 258 2.0 4.0 0.00 0.06 0.06 48 975.0
20260901153932 72 245 3.0 4.0 0.00 0.06 0.06 49 975.1
20260901153032 69 280 2.0 3.0 0.00 0.06 0.06 53 975.1
20260901145432 72 216 5.0 8.0 0.00 0.06 0.06 48 975.4
20260901143632 72 238 5.0 9.0 0.00 0.06 0.06 50 975.4
20260901142732 72 247 4.0 6.0 0.00 0.06 0.06 49 975.5
20260901141832 72 242 4.0 6.0 0.00 0.06 0.06 48 975.4
20260901140032 72 233 5.0 8.0 0.00 0.06 0.06 47 975.7
20260901135132 72 262 5.0 7.0 0.00 0.06 0.06 47 975.7
20260901134232 70 279 6.0 9.0 0.00 0.06 0.06 49 975.6
20260901133332 71 231 5.0 7.0 0.00 0.06 0.06 48 975.8
20260901132433 71 283 5.0 8.0 0.00 0.06 0.06 48 975.9
20260901131532 72 233 4.0 6.0 0.00 0.06 0.06 48 975.9
20260901130632 70 220 5.0 7.0 0.00 0.06 0.06 49 976.0
20260901125732 70 232 6.0 9.0 0.00 0.06 0.06 50 976.0
20260901124832 70 259 5.0 8.0 0.00 0.06 0.06 50 975.9
20260901123933 70 250 5.0 7.0 0.00 0.06 0.06 49 975.8
20260901123032 69 232 4.0 7.0 0.00 0.06 0.06 49 976.0
20260901122132 69 231 4.0 6.0 0.00 0.06 0.06 48 975.9
20260901121232 69 159 6.0 7.0 0.00 0.06 0.06 49 975.9
20260901120332 67 171 6.0 7.0 0.00 0.06 0.06 49 976.0
20260901115433 67 228 4.0 7.0 0.00 0.06 0.06 51 976.0
20260901114532 67 235 4.0 8.0 0.00 0.06 0.06 49 976.0
20260901113639 67 228 5.0 8.0 0.01 0.06 0.06 49 976.1
20260901111832 66 216 6.0 10.0 0.01 0.06 0.06 49 975.9
20260901110933 66 285 4.0 7.0 0.01 0.06 0.06 49 976.1
20260901110032 66 235 4.0 7.0 0.01 0.06 0.06 50 976.0
20260901104232 64 253 4.0 5.0 0.01 0.06 0.06 51 976.2
20260901103332 63 245 6.0 8.0 0.00 0.05 0.05 51 976.2
20260901102432 63 247 5.0 6.0 0.00 0.05 0.05 50 976.2
20260901101532 62 301 5.0 8.0 0.00 0.05 0.05 50 976.1
20260901100632 62 309 4.0 5.0 0.01 0.05 0.05 49 976.1
20260901095733 62 243 4.0 5.0 0.01 0.05 0.05 49 976.0
20260901094832 62 241 4.0 6.0 0.01 0.05 0.05 51 976.0
20260901093933 61 300 4.0 6.0 0.02 0.05 0.05 56 976.1
20260901093032 60 284 4.0 5.0 0.02 0.05 0.05 57 976.3
20260901091232 61 313 3.0 4.0 0.01 0.04 0.04 57 976.1
20260901085432 61 251 4.0 5.0 0.02 0.04 0.04 58 976.2
20260901084532 60 269 4.0 5.0 0.01 0.02 0.02 58 976.2
20260901083632 61 256 4.0 5.0 0.01 0.02 0.02 58 976.2
20260901082732 60 291 3.0 5.0 0.02 0.02 0.02 60 976.1
20260901081832 60 276 3.0 5.0 0.02 0.02 0.02 64 976.2
20260901080932 60 275 4.0 6.0 0.02 0.02 0.02 63 976.2
20260901080032 59 290 5.0 7.0 0.02 0.02 0.02 64 976.1
20260901075132 61 316 3.0 5.0 0.01 0.01 0.01 63 976.2
20260901074233 62 15 3.0 4.0 0.01 0.01 0.01 65 976.2
20260901073332 62 348 3.0 4.0 0.01 0.01 0.01 62 976.1
20260901071532 63 348 1.0 2.0 0.00 0.00 0.00 65 976.1
20260901070632 61 164 1.0 2.0 0.00 0.00 0.00 66 976.2
20260901065733 58 129 2.0 3.0 0.00 0.00 0.00 67 976.1
20260901064832 57 111 2.0 3.0 0.00 0.00 0.00 66 976.1
20260901063933 58 11 2.0 4.0 0.00 0.00 0.00 71 976.2
20260901063032 55 358 3.0 4.0 0.00 0.00 0.00 70 976.2
20260901062132 55 26 2.0 3.0 0.00 0.00 0.00 72 976.0
20260901061232 53 113 4.0 4.0 0.00 0.00 0.00 74 975.9
20260901060332 51 114 4.0 4.0 0.00 0.00 0.00 76 975.9
20260901055432 50 79 3.0 4.0 0.00 0.00 0.00 77 975.8
20260901054532 50 90 4.0 5.0 0.00 0.00 0.00 77 975.9
20260901053632 49 94 3.0 4.0 0.00 0.00 0.00 80 975.9
20260901052732 48 96 3.0 4.0 0.00 0.00 0.00 81 975.7
20260901050933 48 89 2.0 4.0 0.00 0.00 0.00 83 975.7
20260901050033 46 100 4.0 5.0 0.00 0.00 0.00 85 975.7
20260901045132 46 88 4.0 5.0 0.00 0.00 0.00 86 975.6
20260901044232 45 83 5.0 6.0 0.00 0.00 0.00 86 975.6